Regional Weather Roundup
Issued by NWS

Home | Current Version | Previous Version | Text Only | Print | Product List | Glossary On
Versions: 1 2 3 4 5 6 7 8 9 10 11 12 13 14 15 16 17 18 19 20 21 22 23 24 25 26 27 28 29 30 31 32 33 34 35 36 37 38 39 40 41 42 43 44 45 46 47 48 49 50
000
ASUS45 KTFX 230410
RWRMT
MONTANA REGIONAL WEATHER ROUNDUP
NATIONAL WEATHER SERVICE GREAT FALLS MT
1000 PM MDT FRI MAY 22 2015

NOTE: "FAIR" INDICATES FEW OR NO CLOUDS BELOW 12000 FEET WITH NO
SIGNIFICANT WEATHER AND/OR OBSTRUCTIONS TO VISIBILITY.

MTZ001>007-043-230500-
WEST OF THE DIVIDE

CITY           SKY/WX    TMP DP  RH WIND       PRES   REMARKS
KALISPELL      CLEAR     59  34  39 NE8       29.90R
MISSOULA       CLOUDY    68  35  29 E10       29.88R
BUTTE          CLOUDY    54  41  61 SW5       29.98R
MULLAN PASS    CLOUDY    55  35  47 CALM      29.99R
DEER LODGE       N/A     52  37  58 W6        29.99R
EUREKA           N/A     72  28  20 E3        29.92R
HAMILTON         N/A     57  46  67 CALM      29.90R
LIBBY            N/A     70  34  26 CALM      29.88R
RONAN            N/A     68  38  33 CALM      29.94R
$$

MTZ008-052>055-230500-
SOUTHWEST MONTANA

CITY           SKY/WX    TMP DP  RH WIND       PRES   REMARKS
BOZEMAN        MOCLDY    52  43  71 S8        29.94R
DILLON         MOCLDY    52  44  74 E9        29.94R
W YELLOWSTONE  CLOUDY    48  41  76 E5        29.98S
THREE FORKS      N/A     56  56 100 CALM      29.95R
TWIN BRIDGES     N/A     55  42  61 S8        29.93R
$$

MTZ009-010-012-014-046-048-049-054-230500-
EAST SLOPES AND CENTRAL MONTANA

CITY           SKY/WX    TMP DP  RH WIND       PRES   REMARKS
CUT BANK       CLEAR     54  36  50 NE8       29.99R
GREAT FALLS    CLEAR     52  46  80 NE8       29.95R
MALMSTROM AFB  PTCLDY    55  49  78 E2        29.95R
HELENA         PTCLDY    59  43  55 SE5       29.92S
CONRAD           N/A     58  45  62 NE5       30.00R
$$

MTZ011-013-016-021-045-047-050-051-230500-
NORTH CENTRAL MONTANA

CITY           SKY/WX    TMP DP  RH WIND       PRES   REMARKS
HAVRE          MOCLDY    58  49  72 E6        29.96R
LEWISTOWN      CLOUDY    54  46  74 E6        29.97R
N BAR RANCH    CLOUDY    54  46  76 W7        30.00S
CHINOOK          N/A     63  46  55 E6        29.97R
FORT BENTON      N/A     55  46  71 NE28      29.96R
$$

MTZ017>020-022>027-061-062-230500-
NORTHEAST MONTANA

CITY           SKY/WX    TMP DP  RH WIND       PRES   REMARKS
GLASGOW        CLOUDY    64  41  42 E10       29.98R
JORDAN           N/A     64  44  48 SE13      29.97R
SIDNEY         PTCLDY    57  36  44 CALM      30.04R
WOLF POINT     MOCLDY    61  44  53 SE5       30.00R
MALTA            N/A     59  46  61 CALM      29.94R
PLENTYWOOD       N/A     61  34  36 E12       30.05R
POPLAR           N/A     61  39  44 E6        30.02R
$$

MTZ028>42-056>058-230500-
SOUTHCENTRAL AND SOUTHEAST MONTANA

CITY           SKY/WX    TMP DP  RH WIND       PRES   REMARKS
BAKER          MOCLDY    52  38  58 SE7       30.06R
BILLINGS       CLOUDY    58  45  62 E9        29.95R
LIVINGSTON     MOCLDY    54  43  66 SE9       29.95R
MILES CITY     MOCLDY    60  44  55 SE12      29.99R
BIG TIMBER       N/A     52  48  87 E6        29.99R
FORSYTH          N/A     61  43  51 SE8       29.97R
LAUREL           N/A     59  43  55 NE7       29.93R
ROUNDUP          N/A     60  44  55 CALM      29.88R
$$

REGIONAL REPORTS...DAKOTAS

CITY           SKY/WX    TMP DP  RH WIND       PRES   REMARKS
WILLISTON      PTCLDY    62  37  39 SE5       30.06R
MINOT          MOCLDY    60  40  47 SE5       30.08R
DICKINSON      MOCLDY    50  34  54 SE9       30.08R
BEACH          FAIR      48  39  71 SE9       30.07R
CROSBY         FAIR      57  37  47 S9        30.08R
WATFORD CITY   FAIR      55  32  41 SE8       30.05S
BISMARCK       PTCLDY    62  39  42 S9        30.11R
GRAND FORKS    CLEAR     56  43  61 S6        30.12R
FARGO          CLEAR     64  41  42 SE9       30.13S
BUFFALO SD       N/A     51  39  63 SE16      30.02R
RAPID CITY     CLOUDY    50  43  77 S10       30.09S
$$

REGIONAL REPORTS...WYOMING/IDAHO/WASHINGTON

CITY           SKY/WX    TMP DP  RH WIND       PRES   REMARKS
GILLETTE       CLOUDY    47  41  80 SE13      30.03R
SHERIDAN       CLOUDY    52  45  77 SE23G33   29.94S
BUFFALO WY     CLOUDY    48  46  93 SE13      30.01S
CODY           CLOUDY    50  46  87 S6        29.96R
YELLOWSTONE LA   N/A     42  39  89 NW3       30.03S
IDAHO FALLS    CLOUDY    55  47  74 SW7       29.90R
SALMON         CLOUDY    54  46  76 S5        29.91R
BOISE          CLOUDY    64  50  60 SE6       29.83R
SPOKANE        CLOUDY    64  47  53 SW12      29.85R
$$

REGIONAL REPORTS...ALBERTA

CITY           SKY/WX    TMP DP  RH WIND       PRES   REMARKS
EDMONTON       CLEAR     59  34  38 NE5       30.00R
CALGARY        PTCLDY    63  23  22 SE6       30.04R
LETHBRIDGE     PTCLDY    59  37  44 E3        29.98R
MEDICINE HAT   CLEAR     63  34  34 SE5       29.98R
$$

REGIONAL REPORTS...SASKATCHEWAN

CITY           SKY/WX    TMP DP  RH WIND       PRES   REMARKS
SWIFT CURRENT  CLEAR     61  32  33 E10       30.03R
REGINA         PTCLDY    64  36  34 SE6       30.05R
SASKATOON      PTCLDY    63  37  39 SW5       30.04R
$$


USA.gov is the U.S. government's official web portal to all federal, state and local government web resources and services.